{"data":{"norad_id":69555,"epoch":"2026-09-20T00:07:43.436640Z","epoch_age_seconds":64407,"freshness":"FRESH","line1":"1 69555U 26135K   26263.00536385  .00004226  00000+0  13316-3 0  9996","line2":"2 69555  97.2845 290.6876 0001360  97.0950 263.0447 15.33444756 14929","mean_motion":15.33444756,"eccentricity":0.000136,"inclination_deg":97.2845,"raan_deg":290.6876,"arg_perigee_deg":97.095,"mean_anomaly_deg":263.0447,"bstar":0.00013316,"rev_number":1492,"period_min":93.906219599084,"perigee_km":464.6131598481,"apogee_km":466.47464105302,"semimajor_km":6843.6809004506,"source":"CELESTRAK","updated_at":"2026-09-20T09:00:44.243417Z"}}